User: anonymous   Login
Location: Altleiningen
(49.5078°N, 8.0741°E)
Time: 20:44:28
(UTC+00:00)
Language:

Cosmos 44 Rocket - Orbit

View from above orbital plane
View from above orbital plane
View from above satellite
View from above satellite

Ground track
Ground track

The orbit data is extracted from the following two-line orbital elements,

1 00877U 64053B   21136.88906265 -.00000062  00000-0  12676-4 0  9992
2 00877  65.0784  74.5256 0083449 269.3603  89.7934 14.59428335 10140
Epoch (UTC): 16 May 2021 21:20:15
Eccentricity: 0.0083449
inclination: 65.0784°
perigee height: 636 km
apogee height: 754 km
right ascension of ascending node: 74.5256°
argument of perigee: 269.3603°
revolutions per day: 14.59428335
mean anomaly at epoch: 89.7934°
orbit number at epoch: 1014

The dashed part of the orbit path shows where the satellite is in the earth's shadow,  

DLR